Location: *
(50.3440°N, 18.6237°E)
Time: 17:11:52
(UTC+00:00)

CENTAUR R/B - Pass Details

Date: 30 November 2020
Orbit: 750 x 1438 km, 63.4° (Epoch: 11 January)

Event Time Altitude Azimuth Distance (km) Brightness Sun altitude
Rises 18:49:33 0° 226° (SW) 3,447 5.8 -38.0°
Reaches altitude 10° 18:51:51 10° 227° (SW) 2,588 5.0 -38.3°
Enters shadow 18:53:41 22° 230° (SW) 1,941 4.3 -38.6°
